Location: Newark
(4.9167°N, 114.9167°E)
Time: 02:03:02
(UTC+00:00)

LightSail 2 - Visible Passes

Search period start: 23 October 2019 00:00
Search period end: 02 November 2019 00:00
Orbit: 707 x 722 km, 24.0° (Epoch: 22 October)

Date Brightness Start Highest point End Pass type
(mag) Time Alt. Az. Time Alt. Az. Time Alt. Az.
23 Oct 5.9 11:41:17 10° NW 11:45:17 40° N 11:45:17 40° N visible
24 Oct 6.0 10:43:56 10° NW 10:48:30 32° NNE 10:51:38 17° ENE visible
24 Oct 7.4 12:29:00 10° WNW 12:30:40 21° WNW 12:30:40 21° WNW visible
25 Oct 5.0 11:31:21 10° WNW 11:36:30 80° NNE 11:37:06 68° E visible
26 Oct 5.3 10:33:49 10° NW 10:38:50 56° NNE 10:43:37 11° E visible
26 Oct 6.9 12:19:37 10° W 12:22:40 29° WSW 12:22:40 29° WSW visible
27 Oct 5.6 11:21:42 10° WNW 11:26:43 55° SSW 11:29:12 28° SE visible
28 Oct 5.3 10:23:56 10° WNW 10:29:03 81° SSW 10:34:13 10° ESE visible
28 Oct 7.1 12:10:45 10° WSW 12:14:38 21° SSW 12:14:51 21° SSW visible
28 Oct 7.7 21:05:43 10° S 21:08:39 15° SSE 21:11:36 10° ESE visible
29 Oct 6.8 11:12:26 10° W 11:16:55 30° SSW 11:21:26 10° SE visible
29 Oct 7.9 20:09:54 10° SSE 20:10:51 10° SSE 20:11:48 10° SSE visible
30 Oct 6.3 10:14:22 10° W 10:19:14 43° SSW 10:24:07 10° SE visible
30 Oct 7.8 12:02:58 10° SW 12:04:57 12° SSW 12:06:55 10° S visible
30 Oct 7.0 20:54:35 10° SSW 20:58:55 26° SSE 21:03:13 10° E visible
31 Oct 7.6 11:03:49 10° WSW 11:07:09 17° SSW 11:10:29 10° SSE visible
31 Oct 7.3 19:59:49 17° S 20:01:10 19° SSE 20:04:46 10° ESE visible
31 Oct 5.5 21:41:35 10° WSW 21:46:46 70° SSE 21:51:55 10° ENE visible
01 Nov 6.0 20:45:25 18° SW 20:49:03 47° SSE 20:54:02 10° E visible
